Weather in Pertozero

Russia / Republic of Karelia     64°09′55″N   33°09′38″E
temp.,
°C
wind,
m/s
gust,
m/s
humid.,
%
clouds,
%
prec.,
mm/h
press.,
hPa
HPBL,
m
2 march, tue
tue200:00−1w615844 0.0 998733
03:00−2wnw6158134 0.0 9991030
06:00−3nw6148290 0.0 10001064
09:00−5nw6148448 0.0 1003788
12:00−4nw613790 0.0 1006877
15:00−3nw6127512 0.0 10081152
18:00−5nw4138134 0.0 1009596
21:00−6wnw4138527 0.0 1009510
3 march, wed
wed300:00−6wnw412910 0.0 1008410
03:00−5wnw412910 0.0 1008443
06:00−5wnw4129040 0.0 1006510
09:00−6wnw4129054 0.0 1006489
12:00−4wnw498758 0.0 1004546
15:00−3wnw498579 0.0 1003800
18:00−5wnw229585 0.1 100026
21:00−6n239792 0.3 99999
4 march, thu
thu400:00−9nw239796 0.0 99739
03:00−8nnw259697 0.4 998204
06:00−9nnw249698 0.3 999106
09:00−9nnw249697 0.5 1000155
12:00−7nnw239399 0.3 1000293
15:00−6nw349199 0.4 1001443
18:00−7nw3794100 0.3 1001437
21:00−10nw389697 0.4 1002215
5 march, fri
fri500:00−10wnw389585 0.1 1002245
03:00−11nw379691 0.2 1004270
06:00−12nne51090100 0.3 1006603
09:00−15n379598 0.4 1008246
12:00−12nw358860 0.0 1010352
15:00−10nw248330 0.0 1011429
18:00−12w229457 0.0 101122
21:00−14w369355 0.0 1010135
6 march, sat
sat600:00−12wnw389698 0.0 1010217
03:00−12wnw389499 0.0 1009245
06:00−15w359793 0.0 1008136
09:00−15w269779 0.0 1007165
12:00−10w259288 0.0 1005294
15:00−8wsw249093 0.0 1003433
18:00−11ssw229693 0.0 100121
21:00−13s229796 0.0 100020